Regional Weather Roundup
Issued by NWS

Home | Current Version | Previous Version | Graphics & Text | Print | Product List | Glossary On
Versions: 1 2 3 4 5 6 7 8 9 10 11 12 13 14 15 16 17 18 19 20 21 22 23 24 25 26 27 28 29 30 31 32 33 34 35 36 37 38 39 40 41 42 43 44 45 46 47 48 49 50
228
ASUS45 KSLC 230110
RWRUT

UTAH REGIONAL WEATHER ROUNDUP
NATIONAL WEATHER SERVICE SALT LAKE CITY UT
600 PM MST WED FEB 22 2017

UTZ001>011-023>025-230200-

NORTHERN UTAH

CITY           SKY/WX    TMP DP  RH WIND       PRES   REMARKS
BRIGHAM CITY     N/A     34  32  93 NW8       29.80S WCI  27
HILL AFB       LGT SNOW  32  32 100 SW20G26   29.78S VSB 3/4 WCI  20
LOGAN          LGT SNOW  34  33  96 NW3       29.79S VSB 1
OGDEN          LGT SNOW  33  32  96 SW15G24   29.79S FOG     WCI  23
SALT LAKE CITY SNOW      33  30  88 W16G24    29.84R VSB 1/2 WCI  23
TOOELE VALLEY  CLOUDY    34  32  93 N6        29.85R WCI  29
WENDOVER       MOCLDY    39  18  41 W6        29.82S WCI  35
HEBER CITY     SNOW      30  28  93 CALM      29.76R VSB 1/2
WEST JORDAN    CLOUDY    38  38 100 W7        29.82S WCI  33

$$

UTZ011>015-024>027-230200-

CENTRAL/NORTHEAST UTAH

CITY           SKY/WX    TMP DP  RH WIND       PRES   REMARKS
PROVO AIRPORT  LGT SNOW  34  30  86 N3        29.82R FOG
MOAB/CANYONLAN PTCLDY    59  18  20 SW21G29   29.59F
DELTA          CLOUDY    30  30 100 N22G30    29.82S VSB 1/2 WCI  17
PRICE          MOCLDY    44  32  62 N7        29.62F
RICHFIELD      MOCLDY    41  34  75 SW13G20   29.76R
ROOSEVELT      MIX PCPN  37  34  87 SE6       29.73F WCI  33
VERNAL         LGT SNOW  33  30  88 NE12G22   29.73F FOG     WCI  24

$$

UTZ013>016-019>022-027-230200-

SOUTHERN UTAH

CITY           SKY/WX    TMP DP  RH WIND       PRES   REMARKS
BRYCE CANYON   MOCLDY    37  23  56 SW17      29.76F WCI  27
CEDAR CITY     CLOUDY    46  23  40 W16       29.73F
MILFORD        CLOUDY    36  29  75 N25       29.79R WCI  24
ST GEORGE      CLOUDY    59  25  27 W17       29.74S
HANKSVILLE     PTCLDY    59  18  20 SW17G30   29.64S
KANAB          PTCLDY    52  28  40 SW15G24   29.77F
BLANDING       CLOUDY    55  16  22 SW18G30   29.81F

$$

REGIONAL REPORTS     COLORADO/ARIZONA

CITY           SKY/WX    TMP DP  RH WIND       PRES   REMARKS
CRAIG, CO      CLOUDY    35  26  69 N6        29.76F WCI  30
GRAND JUNCTION MOCLDY    57  28  33 N9        29.62F
RIFLE, CO      MOCLDY    53  27  36 W10       29.65F
MONTROSE, CO   CLOUDY    55  20  25 SW14      29.73F
CORTEZ, CO     CLOUDY    55  28  35 S22G28    29.78F
COLORADO CITY    N/A     52  32  46 W17G26    29.79S
PAGE, AZ       CLEAR     62   3   9 SW18G37   29.67F
GRAND CANYON   PTCLDY    46  24  42 SW22G28   29.85F
KINGMAN, AZ    PTCLDY    56  26  31 SW20      29.83F
FLAGSTAFF, AZ  CLOUDY    42  31  64 SW17      29.91F

$$

REGIONAL REPORTS    NEVADA/IDAHO/WYOMING

CITY           SKY/WX    TMP DP  RH WIND       PRES   REMARKS
LAS VEGAS, NV  PTCLDY    62  20  19 W20G28    29.78S
ELY, NY        CLOUDY    28  13  53 NW9       29.87F WCI  19
ELKO, NV       MOCLDY    32  18  56 W14       29.86R WCI  22
POCATELLO, ID  CLOUDY    34  25  69 N6        29.81F WCI  29
BURLEY, ID     LGT SNOW  33  30  88 N7        29.79F FOG     WCI  27
FORT BRIDGER,  LGT SNOW  27  27 100 E8        29.78F VSB 3/4 WCI  19
EVANSTON, WY   SNOW      26  23  88 NE5       29.74F VSB 1/2 WCI  20
ROCK SPRINGS,  CLOUDY    28  21  75 CALM      29.77F

$$




USA.gov is the U.S. government's official web portal to all federal, state and local government web resources and services.